CDT,Max TemperatureF,Mean TemperatureF,Min TemperatureF,Max Dew PointF,MeanDew PointF,Min DewpointF,Max Humidity, Mean Humidity, Min Humidity, Max Sea Level PressureIn, Mean Sea Level PressureIn, Min Sea Level PressureIn, Max VisibilityMiles, Mean VisibilityMiles, Min VisibilityMiles, Max Wind SpeedMPH, Mean Wind SpeedMPH, Max Gust SpeedMPH,PrecipitationIn, CloudCover, Events, WindDirDegrees
2013-7-1,87,74,60,63,58,54,88,64,31,30.01,29.97,29.93,10,10,10,13,6,22,0.00,0,,354
2013-7-2,89,74,59,61,53,43,88,56,21,30.08,30.03,30.00,10,10,10,9,4,16,0.00,0,,360
2013-7-3,89,74,59,61,55,46,88,55,22,30.09,30.04,29.99,10,10,10,10,3,,0.00,0,,84
2013-7-4,91,76,60,63,59,54,88,58,29,30.06,30.01,29.96,10,10,10,9,5,,0.00,0,,117
2013-7-5,93,76,60,63,60,57,94,60,31,30.04,29.99,29.93,10,10,4,8,3,,0.00,0,,119
2013-7-6,93,78,62,68,61,57,94,59,30,30.01,29.97,29.92,10,10,10,10,5,,0.00,0,,114
2013-7-7,95,82,68,70,65,61,88,60,32,30.05,30.01,29.97,10,10,10,12,5,,0.00,0,,117
2013-7-8,95,83,71,72,69,64,94,65,36,30.12,30.07,30.03,10,10,10,9,6,,0.00,1,,158
2013-7-9,96,84,71,70,67,63,88,57,34,30.13,30.08,30.00,10,10,10,13,7,18,0.00,0,,195
2013-7-10,100,86,73,72,68,63,83,57,31,30.07,30.00,29.91,10,10,10,14,6,20,0.00,0,,207
2013-7-11,100,84,69,73,70,64,94,71,35,30.02,29.96,29.91,10,9,2,18,5,32,0.12,0,,55
2013-7-12,96,82,69,72,69,66,94,68,37,30.03,29.98,29.94,10,9,5,10,4,,0.00,0,,96
2013-7-13,93,78,64,68,59,55,83,53,29,30.04,29.99,29.94,10,10,10,9,7,,0.00,0,,92
2013-7-14,86,77,68,66,62,59,83,66,42,30.02,29.98,29.95,10,10,10,9,5,,0.00,0,,95
2013-7-15,86,78,69,68,66,63,94,76,48,30.15,30.07,29.98,10,9,0,10,5,32,0.40,2,,90
2013-7-16,91,80,68,70,68,66,94,74,43,30.22,30.17,30.12,10,10,7,12,7,20,0.00,1,,84
2013-7-17,95,83,71,72,69,64,94,67,36,30.27,30.22,30.16,10,10,10,13,7,20,0.00,1,,93
2013-7-18,100,84,69,72,67,61,94,61,29,30.19,30.13,30.02,10,10,10,13,4,17,0.00,0,,106
2013-7-19,91,80,69,70,68,64,94,75,49,30.07,30.02,29.97,10,10,10,15,4,25,0.00,1,,142
2013-7-20,95,82,69,72,69,64,94,76,36,30.00,29.95,29.86,10,9,2,17,2,24,0.19,1,,103
2013-7-21,91,80,69,72,70,66,94,74,52,29.96,29.92,29.87,10,10,7,20,5,24,0.00,1,,180
2013-7-22,96,84,73,73,71,68,94,66,39,29.98,29.93,29.88,10,10,10,14,8,21,0.00,1,,204
2013-7-23,96,84,71,73,71,68,88,71,44,29.99,29.92,29.83,10,9,0,20,9,38,1.61,1,,194
2013-7-24,87,78,68,70,68,64,100,79,46,30.03,29.96,29.86,10,9,1,20,7,25,0.60,4,,49
2013-7-25,91,78,66,72,69,64,94,75,46,30.08,30.04,29.98,10,9,1,10,3,,0.00,0,,89
2013-7-26,73,70,68,72,68,64,94,91,88,30.07,29.99,29.88,10,6,0,14,8,26,1.53,6,,83
2013-7-27,91,80,68,68,66,63,94,72,40,30.02,29.98,29.94,10,10,7,12,5,20,0.00,4,,32
2013-7-28,87,76,66,70,66,64,94,70,46,30.02,29.99,29.96,10,9,2,10,3,,0.00,1,,118
2013-7-29,91,80,69,73,70,68,94,73,52,30.06,30.02,29.97,10,10,7,13,7,17,0.00,2,,121
2013-7-30,95,84,73,73,70,70,88,69,44,30.09,30.03,29.99,10,10,7,12,7,18,0.00,0,,169
2013-7-31,96,84,73,75,71,64,89,66,44,30.07,30.01,29.95,10,10,7,10,3,,0.00,0,,173